Location: Newark
(34.9500°N, 139.9667°E)
Time: 01:34:45
(UTC+00:00)

Altair - Pass Details

Date: 12 December 2019
Orbit: 1502 x 1682 km, 47.2° (Epoch: 22 January)

Event Time Altitude Azimuth Distance (km) Brightness Sun altitude
Rises 08:04:01 0° 178° (S) 4,861 10.4 -7.3°
Reaches altitude 10° 08:08:46 10° 159° (SSE) 3,846 9.6 -8.2°
Maximum altitude 08:14:17 17° 124° (SE) 3,305 8.9 -9.3°
Drops below altitude 10° 08:19:42 10° 89° (E) 3,772 9.0 -10.3°
Enters shadow 08:19:54 10° 88° (E) 3,808 9.0 -10.3°
